Location: Beuvrequen
(50.8014°N, 1.6652°E)
Time: 03:14:23
(UTC+00:00)

CENTAUR R/B - Pass Details

Date: 16 October 2021
Orbit: 728 x 1459 km, 63.4° (Epoch: 26 November)

Event Time Altitude Azimuth Distance (km) Brightness Sun altitude
Rises 20:43:23 0° 305° (NW) 3,903 6.7 -35.0°
Reaches altitude 10° 20:46:08 10° 313° (NW) 3,052 5.8 -35.4°
Maximum altitude 20:53:04 39° 21° (NNE) 1,846 3.9 -36.3°
Enters shadow 20:53:17 39° 25° (NNE) 1,853 3.9 -36.3°
